THOR ABLESTAR R/B, 447

Orbit data source: Space-Track

THOR ABLESTAR R/B, 447 is space debris in LEO originally from a launch on Wed, 31 Oct 1962 UTC launched from the Air Force Eastern Test Range (AFETR). Debris objects in space refer to the collection of defunct objects orbiting the Earth. Examples of debris include non-operational satellites, rocket bodies, and fragments generated from explosions, collisions, or faulty payload assembly.

Loading next visibility...
Identifier
447, 1962-060B
Orbit
LEO
Country
Flag of USUS
Related business
Manufacturer
Aerojet
Mission
Spacecraft
Bus & Motor
ABLESTAR, Unknown motor
Mass
~600 kg wet, 600 kg dry
Launch date (UTC)
1962-10-31 (63 years ago)
Launch vehicle
Unknown
Launch site
Air Force Eastern Test Range (AFETR)
Object type
Payload
Rocket body
Debris
Shape & HBR
Unknown
Radar Cross Section
Large (>1 m²)

Expand to show TLE details & history
Last TLE update: 9 hours ago

TLE from 9 hours ago
0 THOR ABLESTAR R/B
1   447U 62060B   26015.13555297 -.00000104  00000-0  44180-4 0  9997
2   447  50.1317 357.5617 0065738  80.9234   1.9505 13.39165038 91563
Epoch: 2026-01-15T03:15Z
TLE epoch observation values (Epoch: 2026-01-15T03:15:11.776Z)
Latitude
49.75329°
Longitude
-86.83901°
Altitude
1,068.726 km
Speed
7.347 km/s
True Right ascension
05h 06m 12s
True Declination
49° 35' 27"
Sunlit
Object was in full shadow at epoch
Visualization orbit readout
Latitude
Unknown
Longitude
Unknown
Altitude
Unknown
Speed
Unknown
Apparent Right ascension
Unknown
Apparent Declination
Unknown
Sunlit
N/A
Visualization observer readout
Local Sidereal Time
12:54:11
Azimuth
Unknown
Elevation
Unknown
Doppler factor
Unknown
Orbital elements
Apogee altitude
1,162.326 km
Perigee altitude
1,063.834 km
Semi-major axis
7,491.217 km
Eccentricity
0.00657
Inclination
50.1317°
RAAN
357.5617°
Arg. of periapsis
80.9234°
True anomaly
1.97635°
Mean anomaly
1.9505°
Eccentric anomaly
1.9634°
Mean motion
3.34745 °/min
Orbital period
107.54 mins
BSTAR
0.00004418
Loading maneuver chart data...
Computing Atmospheric mass density...
Loading historical data...
Loading historical data...
Loading historical data...
Loading historical data...
Loading historical data...
Loading historical data...
Loading historical data...
Other satellites on launch #60 in the year 1962 (1962-10-31 UTC)

Documentation

Showing up to 5 results
|